{"data":{"norad_id":49426,"intl_designator":"2021-104U","name":"STARLINK-3114","alt_names":[],"object_type":"PAYLOAD","status":"ACTIVE","operator":null,"country":"US","launch_date":"2021-11-13","launch_site_code":"AFETR","launch_vehicle":null,"mission":null,"orbit_class":"UNKNOWN","rcs_meters":null,"size_class":null,"mass_kg":null,"dimensions":null,"purposes":["comms"],"wikipedia_slug":null,"has_3d_model":false,"image_url":null,"decayed_at":null,"tle_current":{"epoch":"2026-09-20T02:39:52.674048Z","epoch_age_seconds":74941,"freshness":"FRESH","line1":"1 49426U 21104U   26263.11102632  .00000720  00000+0  32453-4 0  9997","line2":"2 49426  53.1605  63.1930 0001193  92.2739 267.8400 15.34383361268151","mean_motion":15.34383361,"eccentricity":0.0001193,"inclination_deg":53.1605,"raan_deg":63.193,"arg_perigee_deg":92.2739,"mean_anomaly_deg":267.84,"bstar":3.2453e-5,"rev_number":26815,"period_min":93.848775775404,"perigee_km":461.93657712788,"apogee_km":463.56881340917,"semimajor_km":6840.8896952685,"source":"CELESTRAK","updated_at":"2026-09-20T09:00:39.258460Z"}}}